| time (UTC) | temp C | wind direction | speed KPH | gust KPH | rain 1hr cm | rain 24hr cm | rain mn cm | humidity % | barometer mb |
| 20260906112002 | 21 | 35 | 0.0 | 3.2 | 0.00 | 0.00 | 0.00 | 90 | 1014.0 |
| 20260906111501 | 21 | 36 | 3.2 | 3.2 | 0.00 | 0.00 | 0.00 | 90 | 1013.9 |
| 20260906110955 | 21 | 300 | 0.0 | 3.2 | 0.00 | 0.00 | 0.00 | 90 | 1013.8 |
| 20260906110450 | 21 | 0 | 0.0 | 0.0 | 0.00 | 0.00 | 0.00 | 90 | 1013.8 |
| 20260906105949 | 22 | 15 | 0.0 | 0.0 | 0.00 | 0.00 | 0.00 | 90 | 1014.0 |
| 20260906105445 | 22 | 15 | 0.0 | 0.0 | 0.00 | 0.00 | 0.00 | 90 | 1013.9 |
| 20260906104941 | 22 | 270 | 0.0 | 0.0 | 0.00 | 0.00 | 0.00 | 90 | 1013.7 |
| 20260906104440 | 22 | 66 | 0.0 | 0.0 | 0.00 | 0.00 | 0.00 | 90 | 1013.6 |
| 20260906103939 | 22 | 325 | 0.0 | 0.0 | 0.00 | 0.00 | 0.00 | 90 | 1013.6 |
| 20260906103437 | 22 | 14 | 0.0 | 3.2 | 0.00 | 0.00 | 0.00 | 90 | 1013.7 |
| 20260906102933 | 22 | 82 | 0.0 | 1.6 | 0.00 | 0.00 | 0.00 | 90 | 1013.6 |
| 20260906102432 | 22 | 0 | 0.0 | 4.8 | 0.00 | 0.00 | 0.00 | 90 | 1013.6 |
| 20260906101927 | 22 | 341 | 3.2 | 3.2 | 0.00 | 0.00 | 0.00 | 90 | 1013.4 |
| 20260906101423 | 22 | 23 | 3.2 | 3.2 | 0.00 | 0.00 | 0.00 | 90 | 1013.4 |
| 20260906100918 | 22 | 0 | 0.0 | 1.6 | 0.00 | 0.00 | 0.00 | 90 | 1013.4 |
| 20260906100417 | 22 | 35 | 0.0 | 3.2 | 0.00 | 0.00 | 0.00 | 90 | 1013.1 |
| 20260906095912 | 22 | 311 | 0.0 | 4.8 | 0.00 | 0.00 | 0.00 | 90 | 1013.1 |
| 20260906095408 | 22 | 35 | 0.0 | 4.8 | 0.00 | 0.00 | 0.00 | 90 | 1013.0 |
| 20260906094902 | 22 | 90 | 0.0 | 3.2 | 0.00 | 0.00 | 0.00 | 90 | 1013.2 |
| 20260906094357 | 22 | 0 | 0.0 | 0.0 | 0.00 | 0.00 | 0.00 | 90 | 1013.1 |
| 20260906093853 | 22 | 33 | 0.0 | 3.2 | 0.00 | 0.00 | 0.00 | 90 | 1012.9 |
| 20260906093349 | 22 | 71 | 0.0 | 0.0 | 0.00 | 0.00 | 0.00 | 90 | 1013.2 |
| 20260906092848 | 22 | 71 | 0.0 | 0.0 | 0.00 | 0.00 | 0.00 | 90 | 1012.9 |
| 20260906092343 | 22 | 270 | 0.0 | 0.0 | 0.00 | 0.00 | 0.00 | 90 | 1013.0 |
| 20260906091839 | 22 | 279 | 0.0 | 0.0 | 0.00 | 0.00 | 0.00 | 90 | 1012.9 |
| 20260906091335 | 22 | 7 | 0.0 | 1.6 | 0.00 | 0.00 | 0.00 | 90 | 1012.9 |
| 20260906090831 | 22 | 352 | 0.0 | 0.0 | 0.00 | 0.00 | 0.00 | 90 | 1012.8 |
| 20260906090330 | 22 | 66 | 0.0 | 0.0 | 0.00 | 0.00 | 0.00 | 90 | 1012.7 |
| 20260906085831 | 22 | 0 | 1.6 | 1.6 | 0.00 | 0.00 | 0.00 | 90 | 1012.9 |
| 20260906085329 | 22 | 16 | 3.2 | 3.2 | 0.00 | 0.00 | 0.00 | 90 | 1012.5 |
| 20260906084824 | 22 | 0 | 0.0 | 1.6 | 0.00 | 0.00 | 0.00 | 90 | 1012.6 |
| 20260906084324 | 22 | 6 | 0.0 | 1.6 | 0.00 | 0.00 | 0.00 | 90 | 1012.5 |
| 20260906083819 | 22 | 0 | 0.0 | 1.6 | 0.00 | 0.00 | 0.00 | 90 | 1012.4 |
| 20260906083315 | 22 | 63 | 3.2 | 3.2 | 0.00 | 0.00 | 0.00 | 90 | 1012.3 |
| 20260906082809 | 22 | 0 | 0.0 | 1.6 | 0.00 | 0.00 | 0.00 | 90 | 1012.4 |
| 20260906082306 | 21 | 353 | 0.0 | 0.0 | 0.00 | 0.00 | 0.00 | 90 | 1012.3 |
| 20260906081759 | 21 | 15 | 0.0 | 4.8 | 0.00 | 0.00 | 0.00 | 90 | 1012.1 |
| 20260906081255 | 21 | 353 | 0.0 | 0.0 | 0.00 | 0.00 | 0.00 | 90 | 1012.4 |
| 20260906080752 | 21 | 0 | 1.6 | 3.2 | 0.00 | 0.00 | 0.00 | 90 | 1012.1 |
| 20260906080248 | 21 | 0 | 0.0 | 3.2 | 0.00 | 0.00 | 0.00 | 90 | 1012.1 |
| 20260906075747 | 21 | 0 | 1.6 | 3.2 | 0.00 | 0.00 | 0.00 | 90 | 1012.1 |
| 20260906075247 | 21 | 0 | 0.0 | 0.0 | 0.00 | 0.00 | 0.00 | 90 | 1011.9 |
| 20260906074743 | 21 | 0 | 0.0 | 3.2 | 0.00 | 0.00 | 0.00 | 90 | 1012.0 |
| 20260906074242 | 21 | 352 | 0.0 | 3.2 | 0.00 | 0.00 | 0.00 | 90 | 1012.2 |
| 20260906073741 | 21 | 0 | 0.0 | 0.0 | 0.00 | 0.00 | 0.00 | 90 | 1012.0 |
| 20260906073236 | 21 | 0 | 0.0 | 0.0 | 0.00 | 0.00 | 0.00 | 90 | 1012.3 |
| 20260906072732 | 21 | 8 | 0.0 | 0.0 | 0.00 | 0.00 | 0.00 | 90 | 1012.3 |
| 20260906072228 | 21 | 8 | 0.0 | 0.0 | 0.00 | 0.00 | 0.00 | 90 | 1012.3 |
| 20260906071724 | 21 | 15 | 0.0 | 1.6 | 0.00 | 0.00 | 0.00 | 89 | 1012.4 |
| 20260906071224 | 21 | 14 | 0.0 | 0.0 | 0.00 | 0.00 | 0.00 | 89 | 1012.4 |
| 20260906070720 | 21 | 8 | 0.0 | 1.6 | 0.00 | 0.00 | 0.00 | 89 | 1012.2 |
| 20260906070216 | 21 | 15 | 0.0 | 0.0 | 0.00 | 0.00 | 0.00 | 89 | 1012.3 |
| 20260906065715 | 21 | 15 | 0.0 | 0.0 | 0.00 | 0.00 | 0.00 | 89 | 1012.4 |
| 20260906065211 | 21 | 15 | 0.0 | 1.6 | 0.00 | 0.00 | 0.00 | 89 | 1012.4 |
| 20260906064706 | 21 | 0 | 0.0 | 0.0 | 0.00 | 0.00 | 0.00 | 89 | 1012.3 |
| 20260906064201 | 21 | 0 | 0.0 | 0.0 | 0.00 | 0.00 | 0.00 | 89 | 1012.5 |
| 20260906063656 | 21 | 0 | 0.0 | 0.0 | 0.00 | 0.00 | 0.00 | 89 | 1012.6 |
| 20260906063152 | 21 | 8 | 0.0 | 0.0 | 0.00 | 0.00 | 0.00 | 89 | 1012.6 |
| 20260906062648 | 21 | 8 | 0.0 | 0.0 | 0.00 | 0.00 | 0.00 | 89 | 1012.5 |
| 20260906062146 | 21 | 8 | 0.0 | 0.0 | 0.00 | 0.00 | 0.00 | 89 | 1012.4 |
| 20260906061643 | 21 | 8 | 0.0 | 0.0 | 0.00 | 0.00 | 0.00 | 89 | 1012.4 |
| 20260906061143 | 21 | 8 | 0.0 | 0.0 | 0.00 | 0.00 | 0.00 | 89 | 1012.5 |
| 20260906060639 | 21 | 8 | 0.0 | 0.0 | 0.00 | 0.00 | 0.00 | 89 | 1012.7 |
| 20260906060137 | 21 | 81 | 0.0 | 0.0 | 0.00 | 0.00 | 0.00 | 89 | 1012.4 |
| 20260906055632 | 21 | 81 | 0.0 | 0.0 | 0.00 | 0.00 | 0.00 | 89 | 1012.8 |
| 20260906055127 | 21 | 81 | 0.0 | 0.0 | 0.00 | 0.00 | 0.00 | 89 | 1012.7 |
| 20260906054621 | 21 | 81 | 0.0 | 0.0 | 0.00 | 0.00 | 0.00 | 89 | 1012.4 |
| 20260906054117 | 21 | 81 | 0.0 | 0.0 | 0.00 | 0.00 | 0.00 | 89 | 1012.6 |
| 20260906053614 | 21 | 81 | 0.0 | 0.0 | 0.00 | 0.00 | 0.00 | 89 | 1012.8 |
| 20260906053108 | 21 | 81 | 0.0 | 0.0 | 0.00 | 0.00 | 0.00 | 89 | 1012.8 |
| 20260906052604 | 21 | 81 | 0.0 | 0.0 | 0.00 | 0.00 | 0.00 | 89 | 1012.6 |
| 20260906052101 | 21 | 81 | 0.0 | 0.0 | 0.00 | 0.00 | 0.00 | 89 | 1012.9 |
| 20260906051556 | 21 | 81 | 0.0 | 0.0 | 0.00 | 0.00 | 0.00 | 89 | 1012.6 |
| 20260906051051 | 21 | 81 | 0.0 | 0.0 | 0.00 | 0.00 | 0.00 | 89 | 1012.7 |
| 20260906050546 | 21 | 81 | 0.0 | 0.0 | 0.00 | 0.00 | 0.00 | 89 | 1012.8 |
| 20260906050042 | 21 | 81 | 0.0 | 0.0 | 0.00 | 0.00 | 0.00 | 89 | 1012.7 |
| 20260906045540 | 21 | 81 | 0.0 | 0.0 | 0.00 | 0.00 | 0.00 | 89 | 1013.1 |
| 20260906045036 | 21 | 81 | 0.0 | 0.0 | 0.00 | 0.00 | 0.00 | 89 | 1013.4 |
| 20260906044531 | 21 | 81 | 0.0 | 0.0 | 0.00 | 0.00 | 0.00 | 89 | 1013.2 |
| 20260906044026 | 21 | 81 | 0.0 | 0.0 | 0.00 | 0.00 | 0.00 | 89 | 1013.3 |
| 20260906043522 | 21 | 81 | 0.0 | 0.0 | 0.00 | 0.00 | 0.00 | 89 | 1013.3 |
| 20260906043018 | 21 | 81 | 0.0 | 0.0 | 0.00 | 0.00 | 0.00 | 89 | 1013.1 |
| 20260906042516 | 21 | 81 | 0.0 | 0.0 | 0.00 | 0.00 | 0.00 | 89 | 1013.2 |
| 20260906042011 | 21 | 81 | 0.0 | 0.0 | 0.00 | 0.00 | 0.00 | 89 | 1013.2 |
| 20260906041508 | 21 | 188 | 0.0 | 0.0 | 0.00 | 0.00 | 0.00 | 88 | 1013.3 |
| 20260906041007 | 21 | 188 | 0.0 | 0.0 | 0.00 | 0.00 | 0.00 | 88 | 1013.0 |
| 20260906040503 | 21 | 188 | 0.0 | 0.0 | 0.00 | 0.00 | 0.00 | 88 | 1013.1 |
| 20260906035957 | 21 | 188 | 0.0 | 0.0 | 0.00 | 0.03 | 0.03 | 88 | 1013.3 |
| 20260906035453 | 22 | 188 | 0.0 | 0.0 | 0.00 | 0.03 | 0.03 | 88 | 1013.2 |
| 20260906034949 | 22 | 188 | 0.0 | 0.0 | 0.00 | 0.03 | 0.03 | 88 | 1013.2 |
| 20260906034449 | 22 | 188 | 0.0 | 0.0 | 0.00 | 0.03 | 0.03 | 88 | 1013.3 |
| 20260906033944 | 22 | 188 | 0.0 | 0.0 | 0.00 | 0.03 | 0.03 | 88 | 1013.4 |
| 20260906033438 | 22 | 188 | 0.0 | 0.0 | 0.00 | 0.03 | 0.03 | 88 | 1013.2 |
| 20260906032928 | 22 | 188 | 0.0 | 0.0 | 0.00 | 0.03 | 0.03 | 88 | 1013.3 |
| 20260906032425 | 22 | 188 | 0.0 | 0.0 | 0.00 | 0.03 | 0.03 | 88 | 1013.4 |
| 20260906031924 | 22 | 188 | 0.0 | 0.0 | 0.00 | 0.03 | 0.03 | 88 | 1013.6 |
| 20260906031420 | 22 | 188 | 0.0 | 0.0 | 0.00 | 0.03 | 0.03 | 88 | 1013.4 |
| 20260906030915 | 22 | 261 | 0.0 | 0.0 | 0.00 | 0.03 | 0.03 | 88 | 1013.2 |
| 20260906030410 | 22 | 261 | 0.0 | 0.0 | 0.00 | 0.03 | 0.03 | 88 | 1012.9 |
| 20260906025905 | 22 | 105 | 0.0 | 0.0 | 0.00 | 0.03 | 0.03 | 88 | 1013.3 |
| 20260906025405 | 22 | 90 | 0.0 | 0.0 | 0.00 | 0.03 | 0.03 | 88 | 1013.2 |
| 20260906024904 | 22 | 90 | 0.0 | 0.0 | 0.00 | 0.03 | 0.03 | 88 | 1013.1 |
| 20260906024403 | 22 | 90 | 0.0 | 0.0 | 0.00 | 0.03 | 0.03 | 88 | 1013.0 |
| 20260906023859 | 22 | 90 | 0.0 | 0.0 | 0.00 | 0.03 | 0.03 | 88 | 1013.2 |
| 20260906023355 | 22 | 90 | 0.0 | 0.0 | 0.00 | 0.03 | 0.03 | 88 | 1013.1 |
| 20260906022854 | 22 | 90 | 0.0 | 0.0 | 0.00 | 0.03 | 0.03 | 88 | 1013.1 |
| 20260906022349 | 22 | 90 | 0.0 | 0.0 | 0.00 | 0.03 | 0.03 | 88 | 1012.9 |
| 20260906021845 | 22 | 90 | 0.0 | 0.0 | 0.00 | 0.03 | 0.03 | 88 | 1013.0 |
| 20260906021344 | 22 | 355 | 0.0 | 3.2 | 0.00 | 0.03 | 0.03 | 88 | 1012.9 |
| 20260906020839 | 22 | 320 | 3.2 | 4.8 | 0.00 | 0.03 | 0.03 | 88 | 1012.9 |
| 20260906020338 | 22 | 71 | 4.8 | 4.8 | 0.00 | 0.03 | 0.03 | 87 | 1012.7 |
| 20260906015834 | 22 | 55 | 3.2 | 4.8 | 0.00 | 0.03 | 0.03 | 87 | 1012.8 |
| 20260906015333 | 22 | 8 | 0.0 | 0.0 | 0.00 | 0.03 | 0.03 | 87 | 1012.4 |
| 20260906014833 | 22 | 8 | 0.0 | 0.0 | 0.00 | 0.03 | 0.03 | 87 | 1012.7 |
| 20260906014327 | 22 | 8 | 0.0 | 0.0 | 0.00 | 0.03 | 0.03 | 87 | 1012.7 |
| 20260906013824 | 22 | 8 | 0.0 | 0.0 | 0.00 | 0.03 | 0.03 | 87 | 1012.6 |
| 20260906013319 | 22 | 8 | 0.0 | 0.0 | 0.00 | 0.03 | 0.03 | 87 | 1012.4 |
| 20260906012815 | 22 | 15 | 0.0 | 0.0 | 0.00 | 0.03 | 0.03 | 87 | 1012.5 |
| 20260906012315 | 22 | 15 | 0.0 | 0.0 | 0.00 | 0.03 | 0.03 | 87 | 1012.5 |
| 20260906011810 | 22 | 15 | 0.0 | 0.0 | 0.00 | 0.03 | 0.03 | 87 | 1012.2 |
| 20260906011310 | 22 | 15 | 0.0 | 0.0 | 0.00 | 0.03 | 0.03 | 87 | 1012.4 |
| 20260906010806 | 22 | 15 | 0.0 | 0.0 | 0.00 | 0.03 | 0.03 | 87 | 1012.6 |
| 20260906010302 | 22 | 15 | 0.0 | 0.0 | 0.00 | 0.03 | 0.03 | 87 | 1012.4 |
| 20260906005756 | 22 | 15 | 0.0 | 0.0 | 0.00 | 0.03 | 0.03 | 86 | 1012.3 |
| 20260906005255 | 22 | 15 | 0.0 | 0.0 | 0.00 | 0.03 | 0.03 | 86 | 1012.2 |
| 20260906004755 | 22 | 15 | 0.0 | 0.0 | 0.00 | 0.03 | 0.03 | 86 | 1012.4 |
| 20260906004250 | 22 | 15 | 0.0 | 0.0 | 0.00 | 0.03 | 0.03 | 86 | 1012.3 |
| 20260906003750 | 23 | 15 | 0.0 | 0.0 | 0.00 | 0.03 | 0.03 | 86 | 1012.0 |
| 20260906003245 | 23 | 15 | 0.0 | 0.0 | 0.00 | 0.03 | 0.03 | 86 | 1012.2 |
| 20260906002741 | 23 | 8 | 0.0 | 0.0 | 0.00 | 0.03 | 0.03 | 86 | 1012.4 |
| 20260906002240 | 23 | 8 | 0.0 | 0.0 | 0.00 | 0.03 | 0.03 | 86 | 1012.2 |
| 20260906001736 | 23 | 8 | 0.0 | 1.6 | 0.00 | 0.03 | 0.03 | 86 | 1012.0 |
| 20260906001231 | 23 | 0 | 0.0 | 0.0 | 0.00 | 0.03 | 0.03 | 86 | 1011.9 |
| 20260906000727 | 23 | 0 | 0.0 | 0.0 | 0.00 | 0.03 | 0.03 | 86 | 1012.2 |
| 20260906000226 | 23 | 0 | 0.0 | 0.0 | 0.00 | 0.03 | 0.03 | 85 | 1012.0 |
| 20260905235721 | 23 | 8 | 0.0 | 0.0 | 0.00 | 0.03 | 0.03 | 86 | 1012.1 |
| 20260905235215 | 24 | 81 | 0.0 | 0.0 | 0.00 | 0.03 | 0.03 | 85 | 1011.7 |
| 20260905234711 | 24 | 81 | 0.0 | 0.0 | 0.00 | 0.03 | 0.03 | 85 | 1011.8 |
| 20260905234206 | 24 | 81 | 0.0 | 0.0 | 0.00 | 0.03 | 0.03 | 85 | 1011.7 |
| 20260905233702 | 24 | 81 | 0.0 | 0.0 | 0.00 | 0.03 | 0.03 | 85 | 1011.7 |
| 20260905233201 | 24 | 81 | 0.0 | 0.0 | 0.00 | 0.03 | 0.03 | 85 | 1011.5 |
| 20260905232656 | 24 | 81 | 0.0 | 0.0 | 0.00 | 0.03 | 0.03 | 85 | 1011.7 |
| 20260905232151 | 25 | 81 | 0.0 | 0.0 | 0.00 | 0.03 | 0.03 | 85 | 1011.7 |
| 20260905231647 | 25 | 81 | 0.0 | 0.0 | 0.00 | 0.03 | 0.03 | 85 | 1011.7 |
| 20260905231143 | 25 | 90 | 0.0 | 0.0 | 0.00 | 0.03 | 0.03 | 85 | 1011.3 |
| 20260905230638 | 25 | 7 | 0.0 | 1.6 | 0.00 | 0.03 | 0.03 | 85 | 1011.6 |
| 20260905230131 | 25 | 90 | 0.0 | 0.0 | 0.00 | 0.03 | 0.03 | 85 | 1011.3 |
| 20260905225630 | 25 | 90 | 0.0 | 0.0 | 0.00 | 0.03 | 0.03 | 85 | 1011.4 |
| 20260905225126 | 25 | 90 | 0.0 | 0.0 | 0.00 | 0.03 | 0.03 | 85 | 1011.2 |
| 20260905224625 | 25 | 303 | 0.0 | 0.0 | 0.00 | 0.03 | 0.03 | 85 | 1011.4 |
| 20260905224125 | 25 | 0 | 0.0 | 0.0 | 0.00 | 0.03 | 0.03 | 85 | 1011.4 |
| 20260905223622 | 25 | 8 | 0.0 | 1.6 | 0.00 | 0.03 | 0.03 | 85 | 1011.3 |
| 20260905223118 | 25 | 90 | 0.0 | 0.0 | 0.00 | 0.03 | 0.03 | 85 | 1011.6 |
| 20260905222619 | 25 | 90 | 0.0 | 0.0 | 0.00 | 0.03 | 0.03 | 85 | 1011.2 |
| 20260905222113 | 25 | 90 | 0.0 | 0.0 | 0.00 | 0.03 | 0.03 | 85 | 1011.6 |
| 20260905221609 | 25 | 11 | 0.0 | 0.0 | 0.00 | 0.03 | 0.03 | 85 | 1011.7 |
| 20260905221106 | 25 | 81 | 0.0 | 1.6 | 0.00 | 0.03 | 0.03 | 85 | 1011.7 |
| 20260905220601 | 25 | 99 | 1.6 | 1.6 | 0.00 | 0.03 | 0.03 | 85 | 1011.8 |
| 20260905220057 | 25 | 90 | 0.0 | 0.0 | 0.00 | 0.03 | 0.03 | 85 | 1011.9 |
| 20260905215556 | 25 | 114 | 0.0 | 3.2 | 0.00 | 0.03 | 0.03 | 85 | 1012.1 |
| 20260905215052 | 25 | 35 | 0.0 | 3.2 | 0.00 | 0.03 | 0.03 | 85 | 1011.9 |
| 20260905214548 | 25 | 341 | 0.0 | 4.8 | 0.00 | 0.03 | 0.03 | 85 | 1011.8 |
| 20260905214043 | 25 | 285 | 0.0 | 1.6 | 0.00 | 0.03 | 0.03 | 85 | 1011.9 |
| 20260905213538 | 25 | 339 | 0.0 | 3.2 | 0.00 | 0.03 | 0.03 | 84 | 1012.1 |
| 20260905213033 | 26 | 254 | 0.0 | 1.6 | 0.00 | 0.03 | 0.03 | 85 | 1012.0 |
| 20260905212528 | 26 | 325 | 0.0 | 6.4 | 0.00 | 0.03 | 0.03 | 85 | 1012.0 |
| 20260905212028 | 26 | 270 | 0.0 | 3.2 | 0.00 | 0.03 | 0.03 | 85 | 1011.7 |
| 20260905211523 | 25 | 206 | 3.2 | 4.8 | 0.00 | 0.03 | 0.03 | 86 | 1011.7 |
| 20260905211019 | 25 | 90 | 0.0 | 8.0 | 0.00 | 0.03 | 0.03 | 85 | 1012.1 |
| 20260905210515 | 25 | 270 | 1.6 | 3.2 | 0.00 | 0.03 | 0.03 | 85 | 1012.2 |
| 20260905210014 | 24 | 191 | 3.2 | 3.2 | 0.00 | 0.03 | 0.03 | 85 | 1012.4 |
| 20260905205508 | 24 | 180 | 0.0 | 1.6 | 0.00 | 0.03 | 0.03 | 85 | 1012.3 |
| 20260905205007 | 24 | 160 | 0.0 | 3.2 | 0.00 | 0.03 | 0.03 | 85 | 1012.2 |
| 20260905204503 | 23 | 0 | 0.0 | 0.0 | 0.00 | 0.03 | 0.03 | 85 | 1012.0 |
| 20260905204003 | 23 | 0 | 0.0 | 0.0 | 0.00 | 0.03 | 0.03 | 85 | 1011.9 |
| 20260905203458 | 23 | 0 | 0.0 | 0.0 | 0.00 | 0.03 | 0.03 | 85 | 1011.8 |
| 20260905202953 | 23 | 0 | 0.0 | 3.2 | 0.00 | 0.03 | 0.03 | 85 | 1012.0 |
| 20260905202448 | 23 | 5 | 0.0 | 1.6 | 0.00 | 0.03 | 0.03 | 85 | 1011.8 |
| 20260905201944 | 23 | 8 | 0.0 | 0.0 | 0.00 | 0.03 | 0.03 | 84 | 1011.8 |
| 20260905201439 | 23 | 352 | 0.0 | 0.0 | 0.00 | 0.03 | 0.03 | 84 | 1012.1 |
| 20260905200938 | 23 | 175 | 0.0 | 0.0 | 0.00 | 0.03 | 0.03 | 84 | 1012.5 |
| 20260905200435 | 23 | 194 | 1.6 | 4.8 | 0.00 | 0.03 | 0.03 | 83 | 1012.4 |
| 20260905195933 | 22 | 12 | 0.0 | 1.6 | 0.00 | 0.03 | 0.03 | 83 | 1012.4 |
| 20260905195428 | 22 | 320 | 0.0 | 0.0 | 0.00 | 0.03 | 0.03 | 83 | 1012.1 |
| 20260905194924 | 22 | 279 | 0.0 | 0.0 | 0.00 | 0.03 | 0.03 | 83 | 1011.8 |
| 20260905194423 | 22 | 345 | 0.0 | 1.6 | 0.00 | 0.03 | 0.03 | 81 | 1011.5 |
| 20260905193923 | 22 | 352 | 0.0 | 1.6 | 0.00 | 0.03 | 0.03 | 81 | 1011.6 |
| 20260905193418 | 22 | 23 | 0.0 | 0.0 | 0.00 | 0.03 | 0.03 | 80 | 1011.7 |
| 20260905192913 | 22 | 180 | 0.0 | 0.0 | 0.00 | 0.03 | 0.03 | 80 | 1011.5 |
| 20260905192409 | 23 | 188 | 0.0 | 4.8 | 0.00 | 0.03 | 0.03 | 80 | 1011.6 |
| 20260905191909 | 23 | 81 | 0.0 | 0.0 | 0.00 | 0.03 | 0.03 | 79 | 1011.7 |
| 20260905191408 | 23 | 162 | 0.0 | 3.2 | 0.00 | 0.03 | 0.03 | 79 | 1011.6 |
| 20260905190902 | 23 | 90 | 0.0 | 1.6 | 0.00 | 0.03 | 0.03 | 78 | 1011.8 |
| 20260905190354 | 23 | 74 | 0.0 | 1.6 | 0.00 | 0.03 | 0.03 | 77 | 1011.9 |
| 20260905185853 | 23 | 83 | 0.0 | 3.2 | 0.00 | 0.03 | 0.03 | 75 | 1012.0 |
| 20260905185349 | 23 | 165 | 0.0 | 3.2 | 0.00 | 0.03 | 0.03 | 76 | 1012.4 |
| 20260905184848 | 24 | 119 | 0.0 | 4.8 | 0.00 | 0.03 | 0.03 | 76 | 1012.8 |
| 20260905184347 | 25 | 275 | 3.2 | 4.8 | 0.18 | 0.03 | 0.03 | 76 | 1012.8 |
| 20260905183845 | 26 | 270 | 0.0 | 3.2 | 0.18 | 0.03 | 0.03 | 69 | 1012.8 |
| 20260905183341 | 26 | 97 | 0.0 | 4.8 | 0.00 | 0.00 | 0.00 | 67 | 1013.0 |
| 20260905182836 | 26 | 346 | 4.8 | 4.8 | 0.00 | 0.00 | 0.00 | 66 | 1012.8 |
| 20260905182335 | 27 | 75 | 4.8 | 9.7 | 0.00 | 0.00 | 0.00 | 63 | 1012.9 |
| 20260905181831 | 28 | 131 | 4.8 | 9.7 | 0.00 | 0.00 | 0.00 | 61 | 1012.5 |
| 20260905181330 | 30 | 313 | 4.8 | 8.0 | 0.00 | 0.00 | 0.00 | 58 | 1012.8 |
| 20260905180830 | 31 | 219 | 0.0 | 6.4 | 0.00 | 0.00 | 0.00 | 58 | 1012.9 |
| 20260905180325 | 32 | 3 | 4.8 | 4.8 | 0.00 | 0.00 | 0.00 | 66 | 1012.2 |
| 20260905175819 | 32 | 300 | 0.0 | 1.6 | 0.00 | 0.00 | 0.00 | 66 | 1012.2 |
| 20260905175314 | 32 | 270 | 0.0 | 0.0 | 0.00 | 0.00 | 0.00 | 65 | 1011.8 |
| 20260905174809 | 33 | 270 | 0.0 | 1.6 | 0.00 | 0.00 | 0.00 | 64 | 1011.9 |
| 20260905174305 | 33 | 294 | 0.0 | 3.2 | 0.00 | 0.00 | 0.00 | 63 | 1012.5 |
| 20260905173801 | 33 | 331 | 1.6 | 4.8 | 0.00 | 0.00 | 0.00 | 62 | 1012.3 |
| 20260905173257 | 33 | 0 | 0.0 | 0.0 | 0.00 | 0.00 | 0.00 | 66 | 1012.3 |
| 20260905172756 | 33 | 114 | 0.0 | 0.0 | 0.00 | 0.00 | 0.00 | 66 | 1012.4 |
| 20260905172254 | 33 | 279 | 0.0 | 1.6 | 0.00 | 0.00 | 0.00 | 63 | 1012.3 |
| 20260905171751 | 32 | 270 | 0.0 | 3.2 | 0.00 | 0.00 | 0.00 | 64 | 1012.8 |
| 20260905171248 | 32 | 246 | 0.0 | 3.2 | 0.00 | 0.00 | 0.00 | 65 | 1013.0 |
| 20260905170743 | 32 | 270 | 0.0 | 1.6 | 0.00 | 0.00 | 0.00 | 68 | 1013.2 |
| 20260905170239 | 32 | 108 | 8.0 | 8.0 | 0.00 | 0.00 | 0.00 | 69 | 1013.2 |
| 20260905165738 | 32 | 345 | 0.0 | 0.0 | 0.00 | 0.00 | 0.00 | 68 | 1013.2 |
| 20260905165234 | 32 | 20 | 0.0 | 1.6 | 0.00 | 0.00 | 0.00 | 67 | 1013.2 |
| 20260905164733 | 32 | 0 | 0.0 | 3.2 | 0.00 | 0.00 | 0.00 | 71 | 1013.3 |
| 20260905164228 | 33 | 178 | 0.0 | 4.8 | 0.00 | 0.00 | 0.00 | 72 | 1013.4 |
| 20260905163725 | 33 | 331 | 0.0 | 1.6 | 0.00 | 0.00 | 0.00 | 71 | 1013.3 |
| 20260905163220 | 33 | 192 | 3.2 | 4.8 | 0.00 | 0.00 | 0.00 | 71 | 1013.3 |
| 20260905162717 | 32 | 240 | 1.6 | 6.4 | 0.00 | 0.00 | 0.00 | 73 | 1013.4 |
| 20260905162216 | 32 | 323 | 3.2 | 3.2 | 0.00 | 0.00 | 0.00 | 72 | 1013.3 |
| 20260905161711 | 32 | 220 | 0.0 | 3.2 | 0.00 | 0.00 | 0.00 | 75 | 1013.6 |
| 20260905161209 | 32 | 98 | 0.0 | 1.6 | 0.00 | 0.00 | 0.00 | 75 | 1013.7 |
| 20260905160708 | 32 | 30 | 0.0 | 4.8 | 0.00 | 0.00 | 0.00 | 77 | 1013.4 |
| 20260905160202 | 32 | 0 | 1.6 | 6.4 | 0.00 | 0.00 | 0.00 | 77 | 1013.5 |
| 20260905155656 | 32 | 270 | 0.0 | 3.2 | 0.00 | 0.00 | 0.00 | 77 | 1013.6 |
| 20260905155155 | 32 | 270 | 0.0 | 3.2 | 0.00 | 0.00 | 0.00 | 80 | 1013.6 |
| 20260905154649 | 32 | 8 | 0.0 | 1.6 | 0.00 | 0.00 | 0.00 | 81 | 1013.7 |
| 20260905154145 | 32 | 251 | 0.0 | 4.8 | 0.00 | 0.00 | 0.00 | 82 | 1013.7 |
| 20260905153641 | 31 | 206 | 6.4 | 8.0 | 0.00 | 0.00 | 0.00 | 84 | 1013.9 |
| 20260905153137 | 31 | 0 | 1.6 | 1.6 | 0.00 | 0.00 | 0.00 | 85 | 1013.9 |
| 20260905152631 | 31 | 185 | 0.0 | 0.0 | 0.00 | 0.00 | 0.00 | 85 | 1013.7 |
| 20260905152126 | 30 | 12 | 0.0 | 4.8 | 0.00 | 0.00 | 0.00 | 85 | 1014.1 |
| 20260905151620 | 30 | 294 | 0.0 | 4.8 | 0.00 | 0.00 | 0.00 | 86 | 1014.0 |
| 20260905151110 | 30 | 279 | 0.0 | 0.0 | 0.00 | 0.00 | 0.00 | 87 | 1013.9 |
| 20260905150606 | 30 | 26 | 1.6 | 3.2 | 0.00 | 0.00 | 0.00 | 87 | 1014.1 |
| 20260905145556 | 30 | 10 | 3.2 | 3.2 | 0.00 | 0.00 | 0.00 | 87 | 1013.9 |
| 20260905145055 | 30 | 286 | 0.0 | 4.8 | 0.00 | 0.00 | 0.00 | 88 | 1014.1 |
| 20260905144550 | 29 | 270 | 0.0 | 1.6 | 0.00 | 0.00 | 0.00 | 89 | 1014.3 |
| 20260905144044 | 28 | 206 | 0.0 | 3.2 | 0.00 | 0.00 | 0.00 | 90 | 1013.8 |
| 20260905143543 | 28 | 243 | 0.0 | 4.8 | 0.00 | 0.00 | 0.00 | 90 | 1014.1 |
| 20260905143039 | 27 | 5 | 3.2 | 4.8 | 0.00 | 0.00 | 0.00 | 90 | 1013.9 |
| 20260905142538 | 26 | 99 | 0.0 | 0.0 | 0.00 | 0.00 | 0.00 | 91 | 1014.0 |
| 20260905142032 | 26 | 74 | 0.0 | 1.6 | 0.00 | 0.00 | 0.00 | 91 | 1013.7 |
| 20260905141527 | 25 | 173 | 0.0 | 3.2 | 0.00 | 0.00 | 0.00 | 90 | 1013.9 |
| 20260905141024 | 25 | 172 | 0.0 | 4.8 | 0.00 | 0.00 | 0.00 | 90 | 1013.9 |
| 20260905140524 | 25 | 90 | 0.0 | 3.2 | 0.00 | 0.00 | 0.00 | 90 | 1013.8 |
| 20260905140022 | 25 | 36 | 0.0 | 3.2 | 0.00 | 0.00 | 0.00 | 90 | 1014.1 |
| 20260905135519 | 24 | 23 | 0.0 | 3.2 | 0.00 | 0.00 | 0.00 | 91 | 1014.0 |
| 20260905135013 | 24 | 74 | 1.6 | 1.6 | 0.00 | 0.00 | 0.00 | 90 | 1013.9 |
| 20260905134508 | 23 | 106 | 1.6 | 3.2 | 0.00 | 0.00 | 0.00 | 90 | 1013.9 |
| 20260905134006 | 23 | 114 | 0.0 | 0.0 | 0.00 | 0.00 | 0.00 | 90 | 1013.8 |
| 20260905133456 | 23 | 66 | 0.0 | 3.2 | 0.00 | 0.00 | 0.00 | 91 | 1013.8 |
| 20260905132955 | 23 | 83 | 1.6 | 3.2 | 0.00 | 0.00 | 0.00 | 91 | 1013.9 |
| 20260905132450 | 23 | 112 | 0.0 | 3.2 | 0.00 | 0.00 | 0.00 | 91 | 1014.0 |
| 20260905131945 | 23 | 106 | 0.0 | 0.0 | 0.00 | 0.00 | 0.00 | 91 | 1014.0 |
| 20260905131441 | 23 | 97 | 0.0 | 1.6 | 0.00 | 0.00 | 0.00 | 91 | 1014.0 |
| 20260905130936 | 22 | 49 | 0.0 | 3.2 | 0.00 | 0.00 | 0.00 | 91 | 1014.0 |
| 20260905130435 | 22 | 90 | 0.0 | 1.6 | 0.00 | 0.00 | 0.00 | 91 | 1014.0 |
| 20260905125935 | 22 | 79 | 3.2 | 3.2 | 0.00 | 0.00 | 0.00 | 91 | 1013.8 |
| 20260905125430 | 22 | 106 | 0.0 | 1.6 | 0.00 | 0.00 | 0.00 | 91 | 1014.1 |
| 20260905124926 | 22 | 90 | 0.0 | 1.6 | 0.00 | 0.00 | 0.00 | 91 | 1014.1 |
| 20260905124422 | 22 | 99 | 0.0 | 1.6 | 0.00 | 0.00 | 0.00 | 91 | 1014.3 |
| 20260905123922 | 22 | 99 | 0.0 | 3.2 | 0.00 | 0.00 | 0.00 | 91 | 1014.0 |
| 20260905123419 | 22 | 180 | 0.0 | 1.6 | 0.00 | 0.00 | 0.00 | 91 | 1014.3 |
| 20260905122914 | 22 | 99 | 0.0 | 0.0 | 0.00 | 0.00 | 0.00 | 91 | 1014.0 |
| 20260905122413 | 22 | 98 | 0.0 | 0.0 | 0.00 | 0.00 | 0.00 | 91 | 1014.3 |
| 20260905121909 | 21 | 98 | 0.0 | 0.0 | 0.00 | 0.00 | 0.00 | 91 | 1014.3 |
| 20260905121405 | 21 | 98 | 0.0 | 1.6 | 0.00 | 0.00 | 0.00 | 90 | 1014.3 |
| 20260905120904 | 21 | 90 | 0.0 | 0.0 | 0.00 | 0.00 | 0.00 | 90 | 1014.3 |
| 20260905120404 | 21 | 90 | 0.0 | 0.0 | 0.00 | 0.00 | 0.00 | 90 | 1014.1 |
| 20260905115859 | 21 | 90 | 0.0 | 0.0 | 0.00 | 0.00 | 0.00 | 90 | 1013.8 |
| 20260905115357 | 21 | 90 | 0.0 | 0.0 | 0.00 | 0.00 | 0.00 | 90 | 1014.3 |
| 20260905114847 | 21 | 81 | 0.0 | 0.0 | 0.00 | 0.00 | 0.00 | 90 | 1014.1 |
| 20260905114346 | 21 | 81 | 0.0 | 0.0 | 0.00 | 0.00 | 0.00 | 90 | 1013.9 |
| 20260905113846 | 21 | 81 | 0.0 | 0.0 | 0.00 | 0.00 | 0.00 | 90 | 1013.9 |
| 20260905113341 | 21 | 81 | 0.0 | 0.0 | 0.00 | 0.00 | 0.00 | 90 | 1013.8 |
| 20260905112836 | 21 | 99 | 0.0 | 0.0 | 0.00 | 0.00 | 0.00 | 90 | 1013.6 |
| 20260905112331 | 21 | 99 | 0.0 | 3.2 | 0.00 | 0.00 | 0.00 | 90 | 1013.8 |